Tracking 28565 objects as of 3-Mar-2024
HD Live streaming from Space Station
objects crossing your sky now

STARLINK-5332

Track STARLINK-5332 now!
10-day predictions
STARLINK-5332 is classified as:


NORAD ID: 55285
Int'l Code: 2023-010S
Perigee: 577.2 km
Apogee: 581.2 km
Inclination: 70.0 °
Period: 96.1 minutes
Semi major axis: 6950 km
RCS: Unknown
Launch date: January 19, 2023
Source: United States (US)
Launch site: AIR FORCE WESTERN TEST RANGE (AFWTR)
Your satellite tracking list
Your tracking list is empty




NASA's NSSDC Master Catalog

Two Line Element Set (TLE):
1 55285U 23010S   24062.72016129  .00000368  00000-0  38652-4 0  9998
2 55285  69.9998  62.5252 0002864 264.7141  95.3691 14.98326814 64250
Source of the keplerian elements: AFSPC